| time (UTC) | temp C | wind direction | speed KPH | gust KPH | rain 1hr cm | rain 24hr cm | rain mn cm | humidity % | barometer mb |
| 20260508160051 | 20 | 0 | 0.0 | 3.2 | 0.00 | 0.00 | 0.00 | 80 | 1013.7 |
| 20260508155548 | 20 | 0 | 0.0 | 3.2 | 0.00 | 0.00 | 0.00 | 80 | 1013.8 |
| 20260508155048 | 20 | 0 | 0.0 | 3.2 | 0.00 | 0.00 | 0.00 | 79 | 1013.9 |
| 20260508154609 | 20 | 0 | 0.0 | 1.6 | 0.00 | 0.00 | 0.00 | 80 | 1013.9 |
| 20260508154045 | 20 | 0 | 0.0 | 1.6 | 0.00 | 0.00 | 0.00 | 81 | 1013.9 |
| 20260508153546 | 20 | 0 | 0.0 | 1.6 | 0.00 | 0.00 | 0.00 | 80 | 1013.8 |
| 20260508153057 | 20 | 0 | 0.0 | 1.6 | 0.00 | 0.00 | 0.00 | 80 | 1013.9 |
| 20260508152548 | 20 | 0 | 0.0 | 1.6 | 0.00 | 0.00 | 0.00 | 80 | 1014.1 |
| 20260508152047 | 20 | 0 | 0.0 | 1.6 | 0.00 | 0.00 | 0.00 | 80 | 1013.9 |
| 20260508151552 | 19 | 0 | 0.0 | 1.6 | 0.00 | 0.00 | 0.00 | 81 | 1014.0 |
| 20260508151048 | 19 | 34 | 0.0 | 0.0 | 0.00 | 0.00 | 0.00 | 81 | 1014.1 |
| 20260508150550 | 19 | 0 | 0.0 | 1.6 | 0.00 | 0.00 | 0.00 | 81 | 1014.0 |
| 20260508150049 | 19 | 0 | 0.0 | 4.8 | 0.00 | 0.00 | 0.00 | 81 | 1014.2 |
| 20260508145548 | 19 | 0 | 1.6 | 8.0 | 0.00 | 0.00 | 0.00 | 81 | 1014.2 |
| 20260508145049 | 19 | 34 | 0.0 | 8.0 | 0.00 | 0.00 | 0.00 | 80 | 1014.2 |
| 20260508144600 | 18 | 46 | 1.6 | 4.8 | 0.00 | 0.00 | 0.00 | 81 | 1014.1 |
| 20260508144048 | 18 | 0 | 0.0 | 3.2 | 0.00 | 0.00 | 0.00 | 81 | 1014.1 |
| 20260508143548 | 18 | 47 | 0.0 | 3.2 | 0.00 | 0.00 | 0.00 | 81 | 1014.0 |
| 20260508143105 | 18 | 0 | 0.0 | 3.2 | 0.00 | 0.00 | 0.00 | 82 | 1014.0 |
| 20260508142547 | 18 | 0 | 0.0 | 3.2 | 0.00 | 0.00 | 0.00 | 82 | 1014.0 |
| 20260508142048 | 18 | 47 | 0.0 | 3.2 | 0.00 | 0.00 | 0.00 | 82 | 1014.1 |
| 20260508141559 | 18 | 0 | 0.0 | 3.2 | 0.00 | 0.00 | 0.00 | 82 | 1014.1 |
| 20260508141049 | 18 | 0 | 0.0 | 3.2 | 0.00 | 0.00 | 0.00 | 83 | 1014.0 |
| 20260508140547 | 18 | 0 | 0.0 | 1.6 | 0.00 | 0.00 | 0.00 | 82 | 1014.1 |
| 20260508140054 | 17 | 0 | 0.0 | 1.6 | 0.00 | 0.00 | 0.00 | 83 | 1014.2 |
| 20260508135547 | 17 | 0 | 0.0 | 1.6 | 0.00 | 0.00 | 0.00 | 83 | 1014.2 |
| 20260508135050 | 17 | 0 | 0.0 | 0.0 | 0.00 | 0.00 | 0.00 | 83 | 1014.2 |
| 20260508134612 | 17 | 0 | 0.0 | 0.0 | 0.00 | 0.00 | 0.00 | 83 | 1014.3 |
| 20260508134048 | 17 | 0 | 0.0 | 0.0 | 0.00 | 0.00 | 0.00 | 83 | 1014.5 |
| 20260508133548 | 17 | 0 | 0.0 | 0.0 | 0.00 | 0.00 | 0.00 | 83 | 1014.5 |
| 20260508133100 | 17 | 0 | 0.0 | 0.0 | 0.00 | 0.00 | 0.00 | 83 | 1014.6 |
| 20260508132548 | 17 | 0 | 0.0 | 0.0 | 0.00 | 0.00 | 0.00 | 84 | 1014.6 |
| 20260508132048 | 17 | 0 | 0.0 | 0.0 | 0.00 | 0.00 | 0.00 | 84 | 1014.6 |
| 20260508131556 | 17 | 0 | 0.0 | 0.0 | 0.00 | 0.00 | 0.00 | 84 | 1014.3 |
| 20260508131049 | 17 | 0 | 0.0 | 0.0 | 0.00 | 0.00 | 0.00 | 83 | 1014.3 |
| 20260508130548 | 17 | 0 | 0.0 | 1.6 | 0.00 | 0.00 | 0.00 | 83 | 1014.3 |
| 20260508130055 | 17 | 0 | 0.0 | 1.6 | 0.00 | 0.00 | 0.00 | 83 | 1014.3 |
| 20260508125549 | 17 | 0 | 0.0 | 0.0 | 0.00 | 0.00 | 0.00 | 83 | 1014.5 |
| 20260508125048 | 17 | 0 | 0.0 | 0.0 | 0.00 | 0.00 | 0.00 | 83 | 1014.4 |
| 20260508124602 | 17 | 0 | 0.0 | 0.0 | 0.00 | 0.00 | 0.00 | 83 | 1014.5 |
| 20260508124048 | 17 | 0 | 0.0 | 0.0 | 0.00 | 0.00 | 0.00 | 84 | 1014.4 |
| 20260508123548 | 17 | 0 | 0.0 | 0.0 | 0.00 | 0.00 | 0.00 | 83 | 1014.4 |
| 20260508123053 | 17 | 0 | 0.0 | 0.0 | 0.00 | 0.00 | 0.00 | 82 | 1014.4 |
| 20260508122548 | 17 | 0 | 0.0 | 0.0 | 0.00 | 0.00 | 0.00 | 83 | 1014.3 |
| 20260508122047 | 17 | 0 | 0.0 | 0.0 | 0.00 | 0.00 | 0.00 | 83 | 1014.4 |
| 20260508121548 | 17 | 0 | 0.0 | 0.0 | 0.00 | 0.00 | 0.00 | 83 | 1014.4 |
| 20260508121047 | 17 | 0 | 0.0 | 0.0 | 0.00 | 0.00 | 0.00 | 83 | 1014.7 |
| 20260508120548 | 17 | 0 | 0.0 | 0.0 | 0.00 | 0.00 | 0.00 | 83 | 1014.7 |
| 20260508120052 | 17 | 0 | 0.0 | 0.0 | 0.00 | 0.00 | 0.00 | 83 | 1014.9 |
| 20260508115548 | 17 | 0 | 0.0 | 0.0 | 0.00 | 0.00 | 0.00 | 84 | 1015.0 |
| 20260508115051 | 17 | 0 | 0.0 | 0.0 | 0.00 | 0.00 | 0.00 | 84 | 1015.0 |
| 20260508114552 | 17 | 0 | 0.0 | 0.0 | 0.00 | 0.00 | 0.00 | 83 | 1015.1 |
| 20260508114048 | 17 | 0 | 0.0 | 0.0 | 0.00 | 0.00 | 0.00 | 84 | 1015.1 |
| 20260508113548 | 17 | 0 | 0.0 | 0.0 | 0.00 | 0.00 | 0.00 | 83 | 1015.1 |
| 20260508113107 | 17 | 0 | 0.0 | 0.0 | 0.00 | 0.00 | 0.00 | 84 | 1015.1 |
| 20260508112549 | 17 | 0 | 0.0 | 0.0 | 0.00 | 0.00 | 0.00 | 83 | 1015.2 |
| 20260508112048 | 17 | 0 | 0.0 | 0.0 | 0.00 | 0.00 | 0.00 | 83 | 1015.1 |
| 20260508111553 | 17 | 0 | 0.0 | 0.0 | 0.00 | 0.00 | 0.00 | 83 | 1014.9 |
| 20260508111047 | 17 | 0 | 0.0 | 0.0 | 0.00 | 0.00 | 0.00 | 83 | 1014.9 |
| 20260508110548 | 17 | 0 | 0.0 | 0.0 | 0.00 | 0.00 | 0.00 | 82 | 1015.1 |
| 20260508110052 | 17 | 0 | 0.0 | 0.0 | 0.00 | 0.00 | 0.00 | 82 | 1015.0 |
| 20260508105551 | 17 | 0 | 0.0 | 0.0 | 0.00 | 0.00 | 0.00 | 82 | 1014.6 |
| 20260508105047 | 17 | 0 | 0.0 | 0.0 | 0.00 | 0.00 | 0.00 | 82 | 1014.6 |
| 20260508104552 | 17 | 0 | 0.0 | 0.0 | 0.00 | 0.00 | 0.00 | 82 | 1014.7 |
| 20260508104051 | 17 | 0 | 0.0 | 0.0 | 0.00 | 0.00 | 0.00 | 83 | 1014.7 |
| 20260508103548 | 17 | 0 | 0.0 | 0.0 | 0.00 | 0.00 | 0.00 | 82 | 1014.8 |
| 20260508103055 | 17 | 0 | 0.0 | 1.6 | 0.00 | 0.00 | 0.00 | 83 | 1014.9 |
| 20260508102547 | 17 | 0 | 0.0 | 1.6 | 0.00 | 0.00 | 0.00 | 83 | 1014.7 |
| 20260508102048 | 17 | 47 | 0.0 | 1.6 | 0.00 | 0.00 | 0.00 | 82 | 1014.7 |
| 20260508101552 | 17 | 0 | 0.0 | 1.6 | 0.00 | 0.00 | 0.00 | 82 | 1014.7 |
| 20260508101048 | 17 | 0 | 0.0 | 1.6 | 0.00 | 0.00 | 0.00 | 83 | 1014.7 |
| 20260508100547 | 17 | 0 | 0.0 | 1.6 | 0.00 | 0.00 | 0.00 | 83 | 1014.9 |
| 20260508100109 | 17 | 0 | 0.0 | 1.6 | 0.00 | 0.00 | 0.00 | 83 | 1014.9 |
| 20260508095547 | 17 | 0 | 0.0 | 0.0 | 0.00 | 0.00 | 0.00 | 83 | 1014.8 |
| 20260508095048 | 17 | 0 | 0.0 | 0.0 | 0.00 | 0.00 | 0.00 | 83 | 1014.8 |
| 20260508094604 | 17 | 0 | 0.0 | 0.0 | 0.00 | 0.00 | 0.00 | 83 | 1014.9 |
| 20260508094048 | 17 | 0 | 0.0 | 0.0 | 0.00 | 0.00 | 0.00 | 83 | 1015.1 |
| 20260508093548 | 17 | 0 | 0.0 | 0.0 | 0.00 | 0.00 | 0.00 | 83 | 1015.2 |
| 20260508093056 | 17 | 0 | 0.0 | 0.0 | 0.00 | 0.00 | 0.00 | 83 | 1015.2 |
| 20260508092553 | 17 | 0 | 0.0 | 0.0 | 0.00 | 0.00 | 0.00 | 83 | 1015.1 |
| 20260508092047 | 17 | 0 | 0.0 | 0.0 | 0.00 | 0.00 | 0.00 | 84 | 1015.2 |
| 20260508091603 | 17 | 0 | 0.0 | 0.0 | 0.00 | 0.00 | 0.00 | 83 | 1015.1 |
| 20260508091048 | 17 | 0 | 0.0 | 0.0 | 0.00 | 0.00 | 0.00 | 83 | 1014.9 |
| 20260508090548 | 17 | 0 | 0.0 | 0.0 | 0.00 | 0.00 | 0.00 | 83 | 1014.6 |
| 20260508090113 | 17 | 0 | 0.0 | 0.0 | 0.00 | 0.00 | 0.00 | 81 | 1014.5 |
| 20260508085547 | 17 | 0 | 0.0 | 0.0 | 0.00 | 0.00 | 0.00 | 82 | 1014.6 |
| 20260508085050 | 17 | 0 | 0.0 | 0.0 | 0.00 | 0.00 | 0.00 | 81 | 1014.6 |
| 20260508084548 | 17 | 0 | 0.0 | 0.0 | 0.00 | 0.00 | 0.00 | 82 | 1014.8 |
| 20260508084049 | 17 | 0 | 0.0 | 0.0 | 0.00 | 0.00 | 0.00 | 81 | 1014.8 |
| 20260508083549 | 17 | 0 | 0.0 | 0.0 | 0.00 | 0.00 | 0.00 | 82 | 1014.7 |
| 20260508083049 | 17 | 0 | 0.0 | 0.0 | 0.00 | 0.00 | 0.00 | 82 | 1014.9 |
| 20260508082552 | 17 | 0 | 0.0 | 0.0 | 0.00 | 0.00 | 0.00 | 82 | 1015.0 |
| 20260508082047 | 17 | 0 | 0.0 | 0.0 | 0.00 | 0.00 | 0.00 | 82 | 1015.0 |
| 20260508081603 | 17 | 0 | 0.0 | 0.0 | 0.00 | 0.00 | 0.00 | 81 | 1014.9 |
| 20260508081047 | 17 | 0 | 0.0 | 0.0 | 0.00 | 0.00 | 0.00 | 81 | 1014.9 |
| 20260508080552 | 17 | 0 | 0.0 | 0.0 | 0.00 | 0.00 | 0.00 | 81 | 1015.2 |
| 20260508080055 | 17 | 0 | 0.0 | 0.0 | 0.00 | 0.00 | 0.00 | 82 | 1015.0 |
| 20260508075550 | 17 | 0 | 0.0 | 0.0 | 0.00 | 0.00 | 0.00 | 81 | 1014.7 |
| 20260508075049 | 16 | 0 | 0.0 | 0.0 | 0.00 | 0.00 | 0.00 | 82 | 1014.8 |
| 20260508074552 | 16 | 0 | 0.0 | 0.0 | 0.00 | 0.00 | 0.00 | 82 | 1014.7 |
| 20260508074052 | 16 | 0 | 0.0 | 0.0 | 0.00 | 0.00 | 0.00 | 82 | 1014.9 |
| 20260508073549 | 16 | 0 | 0.0 | 0.0 | 0.00 | 0.00 | 0.00 | 82 | 1014.8 |
| 20260508073110 | 16 | 0 | 0.0 | 0.0 | 0.00 | 0.00 | 0.00 | 83 | 1014.8 |
| 20260508072547 | 16 | 0 | 0.0 | 4.8 | 0.00 | 0.00 | 0.00 | 83 | 1014.6 |
| 20260508072047 | 16 | 0 | 0.0 | 4.8 | 0.00 | 0.00 | 0.00 | 83 | 1014.6 |
| 20260508071551 | 16 | 0 | 0.0 | 4.8 | 0.00 | 0.00 | 0.00 | 83 | 1014.9 |
| 20260508071048 | 16 | 0 | 0.0 | 0.0 | 0.00 | 0.00 | 0.00 | 83 | 1014.9 |
| 20260508070548 | 16 | 0 | 0.0 | 0.0 | 0.00 | 0.00 | 0.00 | 84 | 1014.7 |
| 20260508070053 | 16 | 0 | 0.0 | 0.0 | 0.00 | 0.00 | 0.00 | 84 | 1014.9 |
| 20260508065547 | 16 | 0 | 0.0 | 0.0 | 0.00 | 0.00 | 0.00 | 84 | 1015.2 |
| 20260508065048 | 16 | 0 | 0.0 | 0.0 | 0.00 | 0.00 | 0.00 | 84 | 1015.3 |
| 20260508064559 | 16 | 0 | 0.0 | 0.0 | 0.00 | 0.00 | 0.00 | 84 | 1015.4 |
| 20260508064048 | 16 | 0 | 0.0 | 0.0 | 0.00 | 0.00 | 0.00 | 84 | 1015.4 |
| 20260508063548 | 16 | 0 | 0.0 | 0.0 | 0.00 | 0.00 | 0.00 | 84 | 1015.7 |
| 20260508063107 | 16 | 0 | 0.0 | 0.0 | 0.00 | 0.00 | 0.00 | 84 | 1015.9 |
| 20260508062549 | 16 | 0 | 0.0 | 0.0 | 0.00 | 0.00 | 0.00 | 84 | 1016.1 |
| 20260508062048 | 16 | 0 | 0.0 | 0.0 | 0.00 | 0.00 | 0.00 | 83 | 1016.0 |
| 20260508061605 | 16 | 0 | 0.0 | 0.0 | 0.00 | 0.00 | 0.00 | 83 | 1015.9 |
| 20260508061048 | 16 | 0 | 0.0 | 0.0 | 0.00 | 0.00 | 0.00 | 83 | 1015.9 |
| 20260508060547 | 16 | 0 | 0.0 | 0.0 | 0.00 | 0.00 | 0.00 | 83 | 1015.8 |
| 20260508060103 | 16 | 0 | 0.0 | 0.0 | 0.00 | 0.00 | 0.00 | 82 | 1015.6 |
| 20260508055547 | 16 | 0 | 0.0 | 0.0 | 0.00 | 0.00 | 0.00 | 82 | 1015.4 |
| 20260508055047 | 16 | 0 | 0.0 | 0.0 | 0.00 | 0.00 | 0.00 | 82 | 1015.7 |
| 20260508054553 | 16 | 0 | 0.0 | 0.0 | 0.00 | 0.00 | 0.00 | 82 | 1015.8 |
| 20260508054048 | 16 | 0 | 0.0 | 0.0 | 0.00 | 0.00 | 0.00 | 82 | 1016.0 |
| 20260508053548 | 16 | 0 | 0.0 | 0.0 | 0.00 | 0.00 | 0.00 | 83 | 1016.0 |
| 20260508053058 | 16 | 0 | 0.0 | 0.0 | 0.00 | 0.00 | 0.00 | 82 | 1015.9 |
| 20260508052550 | 16 | 0 | 0.0 | 0.0 | 0.00 | 0.00 | 0.00 | 82 | 1015.7 |
| 20260508052046 | 16 | 0 | 0.0 | 0.0 | 0.00 | 0.00 | 0.00 | 82 | 1015.9 |
| 20260508051609 | 16 | 0 | 0.0 | 0.0 | 0.00 | 0.00 | 0.00 | 82 | 1015.7 |
| 20260508051048 | 16 | 0 | 0.0 | 0.0 | 0.00 | 0.00 | 0.00 | 81 | 1015.4 |
| 20260508050550 | 16 | 0 | 0.0 | 1.6 | 0.00 | 0.00 | 0.00 | 81 | 1015.5 |
| 20260508050058 | 16 | 0 | 0.0 | 1.6 | 0.00 | 0.00 | 0.00 | 82 | 1015.6 |
| 20260508045547 | 16 | 0 | 0.0 | 1.6 | 0.00 | 0.00 | 0.00 | 82 | 1016.1 |
| 20260508045047 | 16 | 0 | 0.0 | 0.0 | 0.00 | 0.00 | 0.00 | 82 | 1016.2 |
| 20260508044554 | 16 | 0 | 0.0 | 0.0 | 0.00 | 0.00 | 0.00 | 83 | 1016.5 |
| 20260508044047 | 16 | 0 | 0.0 | 0.0 | 0.00 | 0.00 | 0.00 | 83 | 1016.0 |
| 20260508043549 | 16 | 0 | 0.0 | 0.0 | 0.00 | 0.00 | 0.00 | 82 | 1015.2 |
| 20260508043055 | 16 | 0 | 0.0 | 0.0 | 0.00 | 0.00 | 0.00 | 82 | 1015.1 |
| 20260508042548 | 16 | 0 | 0.0 | 0.0 | 0.00 | 0.00 | 0.00 | 82 | 1015.5 |
| 20260508042048 | 16 | 0 | 0.0 | 0.0 | 0.00 | 0.00 | 0.00 | 81 | 1015.6 |
| 20260508041551 | 16 | 0 | 0.0 | 0.0 | 0.00 | 0.00 | 0.00 | 81 | 1015.7 |
| 20260508041048 | 16 | 0 | 0.0 | 0.0 | 0.00 | 0.00 | 0.00 | 81 | 1015.8 |
| 20260508040547 | 17 | 0 | 0.0 | 0.0 | 0.00 | 0.00 | 0.00 | 80 | 1015.9 |
| 20260508040055 | 17 | 0 | 0.0 | 0.0 | 0.00 | 0.00 | 0.00 | 81 | 1016.2 |
| 20260508035548 | 17 | 0 | 0.0 | 0.0 | 0.00 | 0.00 | 0.00 | 81 | 1016.0 |
| 20260508035048 | 17 | 0 | 0.0 | 0.0 | 0.00 | 0.00 | 0.00 | 80 | 1016.2 |
| 20260508034554 | 17 | 0 | 0.0 | 0.0 | 0.00 | 0.00 | 0.00 | 80 | 1016.2 |
| 20260508034048 | 17 | 0 | 0.0 | 0.0 | 0.00 | 0.00 | 0.00 | 79 | 1016.3 |
| 20260508033547 | 17 | 0 | 0.0 | 0.0 | 0.00 | 0.00 | 0.00 | 79 | 1016.5 |
| 20260508033055 | 17 | 0 | 0.0 | 0.0 | 0.00 | 0.00 | 0.00 | 79 | 1017.0 |
| 20260508032547 | 17 | 0 | 0.0 | 0.0 | 0.00 | 0.00 | 0.00 | 79 | 1017.1 |
| 20260508032048 | 17 | 0 | 0.0 | 0.0 | 0.00 | 0.00 | 0.00 | 79 | 1016.8 |
| 20260508031556 | 17 | 0 | 0.0 | 0.0 | 0.00 | 0.00 | 0.00 | 79 | 1016.9 |
| 20260508031048 | 17 | 0 | 0.0 | 0.0 | 0.00 | 0.00 | 0.00 | 78 | 1016.8 |
| 20260508030548 | 17 | 0 | 0.0 | 0.0 | 0.00 | 0.00 | 0.00 | 78 | 1016.6 |
| 20260508030058 | 17 | 0 | 0.0 | 0.0 | 0.00 | 0.00 | 0.00 | 78 | 1016.3 |
| 20260508025552 | 17 | 0 | 0.0 | 0.0 | 0.00 | 0.00 | 0.00 | 77 | 1015.9 |
| 20260508025048 | 17 | 0 | 0.0 | 0.0 | 0.00 | 0.00 | 0.00 | 76 | 1015.8 |
| 20260508024615 | 17 | 0 | 0.0 | 0.0 | 0.00 | 0.00 | 0.00 | 76 | 1015.9 |
| 20260508024048 | 17 | 0 | 0.0 | 0.0 | 0.00 | 0.00 | 0.00 | 77 | 1016.0 |
| 20260508023548 | 17 | 0 | 0.0 | 1.6 | 0.00 | 0.00 | 0.00 | 76 | 1015.7 |
| 20260508023049 | 17 | 0 | 0.0 | 1.6 | 0.00 | 0.00 | 0.00 | 75 | 1015.1 |
| 20260508022547 | 17 | 0 | 0.0 | 1.6 | 0.00 | 0.00 | 0.00 | 75 | 1014.4 |
| 20260508022048 | 17 | 0 | 0.0 | 1.6 | 0.00 | 0.00 | 0.00 | 75 | 1014.4 |
| 20260508021557 | 17 | 0 | 0.0 | 1.6 | 0.00 | 0.00 | 0.00 | 74 | 1014.3 |
| 20260508021048 | 18 | 0 | 0.0 | 1.6 | 0.00 | 0.00 | 0.00 | 75 | 1014.5 |
| 20260508020548 | 18 | 0 | 0.0 | 1.6 | 0.00 | 0.00 | 0.00 | 73 | 1014.4 |
| 20260508020054 | 18 | 0 | 0.0 | 1.6 | 0.00 | 0.00 | 0.00 | 73 | 1014.3 |
| 20260508015550 | 18 | 0 | 0.0 | 3.2 | 0.00 | 0.00 | 0.00 | 73 | 1014.4 |
| 20260508015048 | 18 | 0 | 0.0 | 3.2 | 0.00 | 0.00 | 0.00 | 72 | 1014.2 |
| 20260508014553 | 18 | 47 | 0.0 | 1.6 | 0.00 | 0.00 | 0.00 | 72 | 1014.0 |
| 20260508014048 | 18 | 0 | 0.0 | 1.6 | 0.00 | 0.00 | 0.00 | 71 | 1014.2 |
| 20260508013550 | 18 | 0 | 0.0 | 4.8 | 0.00 | 0.00 | 0.00 | 71 | 1014.4 |
| 20260508013051 | 18 | 0 | 0.0 | 3.2 | 0.00 | 0.00 | 0.00 | 70 | 1014.4 |
| 20260508012548 | 18 | 0 | 0.0 | 3.2 | 0.00 | 0.00 | 0.00 | 71 | 1014.5 |
| 20260508012048 | 18 | 0 | 0.0 | 0.0 | 0.00 | 0.00 | 0.00 | 70 | 1014.7 |
| 20260508011556 | 18 | 0 | 0.0 | 1.6 | 0.00 | 0.00 | 0.00 | 71 | 1014.9 |
| 20260508011047 | 18 | 0 | 0.0 | 3.2 | 0.00 | 0.00 | 0.00 | 70 | 1015.1 |
| 20260508010547 | 18 | 0 | 0.0 | 3.2 | 0.00 | 0.00 | 0.00 | 70 | 1014.8 |
| 20260508010057 | 18 | 46 | 0.0 | 3.2 | 0.00 | 0.00 | 0.00 | 68 | 1014.5 |
| 20260508005551 | 18 | 0 | 0.0 | 3.2 | 0.00 | 0.00 | 0.00 | 68 | 1014.2 |
| 20260508005047 | 18 | 0 | 0.0 | 3.2 | 0.00 | 0.00 | 0.00 | 68 | 1014.9 |
| 20260508004600 | 19 | 0 | 0.0 | 3.2 | 0.00 | 0.00 | 0.00 | 67 | 1014.4 |
| 20260508004048 | 19 | 0 | 0.0 | 3.2 | 0.00 | 0.00 | 0.00 | 67 | 1015.1 |
| 20260508003547 | 19 | 44 | 0.0 | 3.2 | 0.00 | 0.00 | 0.00 | 67 | 1015.1 |
| 20260508003055 | 19 | 44 | 0.0 | 1.6 | 0.00 | 0.00 | 0.00 | 69 | 1015.1 |
| 20260508002548 | 19 | 45 | 0.0 | 3.2 | 0.00 | 0.00 | 0.00 | 68 | 1015.1 |
| 20260508002047 | 19 | 0 | 0.0 | 3.2 | 0.00 | 0.00 | 0.00 | 69 | 1015.6 |
| 20260508001551 | 19 | 0 | 0.0 | 3.2 | 0.00 | 0.00 | 0.00 | 67 | 1015.5 |
| 20260508001047 | 20 | 45 | 0.0 | 3.2 | 0.00 | 0.00 | 0.00 | 69 | 1015.4 |
| 20260508000547 | 20 | 0 | 0.0 | 0.0 | 0.00 | 0.00 | 0.00 | 69 | 1015.4 |
| 20260508000049 | 20 | 0 | 0.0 | 0.0 | 0.00 | 0.00 | 0.00 | 69 | 1015.7 |
| 20260507235547 | 20 | 0 | 0.0 | 3.2 | 0.00 | 0.00 | 0.00 | 68 | 1016.0 |
| 20260507235048 | 20 | 0 | 0.0 | 3.2 | 0.00 | 0.00 | 0.00 | 68 | 1015.8 |
| 20260507234547 | 20 | 0 | 0.0 | 3.2 | 0.00 | 0.00 | 0.00 | 66 | 1016.0 |
| 20260507234048 | 20 | 0 | 0.0 | 3.2 | 0.00 | 0.00 | 0.00 | 68 | 1016.1 |
| 20260507233548 | 20 | 0 | 0.0 | 3.2 | 0.00 | 0.00 | 0.00 | 67 | 1016.0 |
| 20260507233053 | 20 | 0 | 0.0 | 3.2 | 0.00 | 0.00 | 0.00 | 67 | 1016.0 |
| 20260507232548 | 20 | 0 | 0.0 | 3.2 | 0.00 | 0.00 | 0.00 | 68 | 1016.0 |
| 20260507232048 | 20 | 0 | 0.0 | 3.2 | 0.00 | 0.00 | 0.00 | 68 | 1015.8 |
| 20260507231548 | 20 | 0 | 0.0 | 3.2 | 0.00 | 0.00 | 0.00 | 70 | 1016.1 |
| 20260507231047 | 20 | 0 | 0.0 | 1.6 | 0.00 | 0.00 | 0.00 | 68 | 1015.8 |
| 20260507230550 | 20 | 0 | 0.0 | 3.2 | 0.00 | 0.00 | 0.00 | 67 | 1015.8 |
| 20260507230106 | 20 | 0 | 0.0 | 3.2 | 0.00 | 0.00 | 0.00 | 70 | 1016.0 |
| 20260507225547 | 20 | 45 | 0.0 | 1.6 | 0.00 | 0.00 | 0.00 | 70 | 1016.1 |
| 20260507225047 | 20 | 0 | 0.0 | 1.6 | 0.00 | 0.00 | 0.00 | 69 | 1016.2 |
| 20260507224553 | 20 | 0 | 0.0 | 1.6 | 0.00 | 0.00 | 0.00 | 68 | 1016.1 |
| 20260507224049 | 20 | 0 | 0.0 | 3.2 | 0.00 | 0.00 | 0.00 | 69 | 1016.2 |
| 20260507223547 | 20 | 0 | 0.0 | 3.2 | 0.00 | 0.00 | 0.00 | 69 | 1016.4 |
| 20260507223050 | 20 | 0 | 0.0 | 1.6 | 0.00 | 0.00 | 0.00 | 71 | 1016.3 |
| 20260507222547 | 20 | 0 | 0.0 | 1.6 | 0.00 | 0.00 | 0.00 | 69 | 1016.7 |
| 20260507222048 | 20 | 0 | 0.0 | 1.6 | 0.00 | 0.00 | 0.00 | 70 | 1016.5 |
| 20260507221551 | 20 | 0 | 0.0 | 3.2 | 0.00 | 0.00 | 0.00 | 68 | 1016.6 |
| 20260507221046 | 20 | 0 | 0.0 | 3.2 | 0.00 | 0.00 | 0.00 | 69 | 1016.5 |
| 20260507220546 | 20 | 45 | 0.0 | 3.2 | 0.00 | 0.00 | 0.00 | 68 | 1016.5 |
| 20260507220054 | 20 | 0 | 0.0 | 3.2 | 0.00 | 0.00 | 0.00 | 67 | 1016.7 |
| 20260507215547 | 20 | 44 | 0.0 | 3.2 | 0.00 | 0.00 | 0.00 | 68 | 1016.4 |
| 20260507215047 | 20 | 0 | 0.0 | 3.2 | 0.00 | 0.00 | 0.00 | 69 | 1016.4 |
| 20260507214552 | 20 | 32 | 0.0 | 1.6 | 0.00 | 0.00 | 0.00 | 68 | 1016.5 |
| 20260507214047 | 20 | 0 | 0.0 | 1.6 | 0.00 | 0.00 | 0.00 | 68 | 1016.5 |
| 20260507213547 | 20 | 0 | 0.0 | 3.2 | 0.00 | 0.00 | 0.00 | 70 | 1016.7 |
| 20260507213052 | 20 | 0 | 0.0 | 3.2 | 0.00 | 0.00 | 0.00 | 66 | 1016.4 |
| 20260507212547 | 20 | 32 | 0.0 | 3.2 | 0.00 | 0.00 | 0.00 | 69 | 1016.3 |
| 20260507212048 | 20 | 0 | 0.0 | 6.4 | 0.00 | 0.00 | 0.00 | 68 | 1016.3 |
| 20260507211556 | 20 | 0 | 0.0 | 6.4 | 0.00 | 0.00 | 0.00 | 70 | 1016.6 |
| 20260507211048 | 19 | 32 | 0.0 | 3.2 | 0.00 | 0.00 | 0.00 | 72 | 1016.6 |
| 20260507210550 | 19 | 0 | 0.0 | 3.2 | 0.00 | 0.00 | 0.00 | 70 | 1016.6 |
| 20260507205547 | 18 | 0 | 0.0 | 4.8 | 0.00 | 0.00 | 0.00 | 71 | 1016.4 |
| 20260507205047 | 18 | 0 | 0.0 | 4.8 | 0.00 | 0.00 | 0.00 | 68 | 1016.4 |
| 20260507204551 | 18 | 165 | 1.6 | 4.8 | 0.00 | 0.00 | 0.00 | 69 | 1016.7 |
| 20260507204047 | 18 | 0 | 0.0 | 4.8 | 0.00 | 0.00 | 0.00 | 69 | 1016.7 |
| 20260507203547 | 19 | 164 | 0.0 | 3.2 | 0.00 | 0.00 | 0.00 | 68 | 1017.3 |
| 20260507203113 | 18 | 165 | 0.0 | 3.2 | 0.00 | 0.00 | 0.00 | 70 | 1017.6 |
| 20260507202547 | 18 | 0 | 0.0 | 4.8 | 0.00 | 0.00 | 0.00 | 71 | 1017.5 |
| 20260507202050 | 18 | 165 | 0.0 | 4.8 | 0.00 | 0.00 | 0.00 | 69 | 1017.6 |
| 20260507201550 | 19 | 165 | 0.0 | 6.4 | 0.00 | 0.00 | 0.00 | 69 | 1017.4 |
| 20260507201048 | 19 | 0 | 1.6 | 6.4 | 0.00 | 0.00 | 0.00 | 68 | 1017.4 |
| 20260507200547 | 19 | 170 | 0.0 | 4.8 | 0.00 | 0.00 | 0.00 | 69 | 1017.6 |
| 20260507200053 | 19 | 0 | 0.0 | 4.8 | 0.00 | 0.00 | 0.00 | 70 | 1017.3 |
| 20260507195548 | 19 | 126 | 0.0 | 3.2 | 0.00 | 0.00 | 0.00 | 73 | 1017.3 |
| 20260507195050 | 19 | 0 | 0.0 | 4.8 | 0.00 | 0.00 | 0.00 | 72 | 1017.9 |
| 20260507194602 | 18 | 0 | 0.0 | 4.8 | 0.00 | 0.00 | 0.00 | 71 | 1017.9 |
| 20260507194047 | 18 | 0 | 0.0 | 4.8 | 0.00 | 0.00 | 0.00 | 72 | 1017.6 |
| 20260507193547 | 18 | 0 | 0.0 | 4.8 | 0.00 | 0.00 | 0.00 | 72 | 1017.5 |
| 20260507193058 | 18 | 136 | 0.0 | 3.2 | 0.00 | 0.00 | 0.00 | 72 | 1017.5 |
| 20260507192546 | 18 | 136 | 0.0 | 3.2 | 0.00 | 0.00 | 0.00 | 73 | 1018.0 |
| 20260507192047 | 18 | 0 | 0.0 | 3.2 | 0.00 | 0.00 | 0.00 | 74 | 1018.0 |
| 20260507191551 | 18 | 0 | 0.0 | 3.2 | 0.00 | 0.00 | 0.00 | 74 | 1017.9 |
| 20260507191046 | 18 | 0 | 0.0 | 3.2 | 0.00 | 0.00 | 0.00 | 74 | 1018.2 |
| 20260507190549 | 18 | 0 | 0.0 | 3.2 | 0.00 | 0.00 | 0.00 | 74 | 1018.1 |
| 20260507190057 | 18 | 0 | 0.0 | 3.2 | 0.00 | 0.00 | 0.00 | 74 | 1017.9 |
| 20260507185546 | 18 | 136 | 0.0 | 3.2 | 0.00 | 0.00 | 0.00 | 75 | 1017.8 |
| 20260507185046 | 18 | 0 | 0.0 | 4.8 | 0.00 | 0.00 | 0.00 | 75 | 1018.1 |
| 20260507184550 | 18 | 0 | 0.0 | 4.8 | 0.00 | 0.00 | 0.00 | 73 | 1018.2 |
| 20260507184046 | 18 | 0 | 0.0 | 4.8 | 0.00 | 0.00 | 0.00 | 73 | 1018.3 |
| 20260507183548 | 18 | 0 | 0.0 | 3.2 | 0.00 | 0.00 | 0.00 | 73 | 1018.5 |
| 20260507183050 | 18 | 135 | 0.0 | 4.8 | 0.00 | 0.00 | 0.00 | 74 | 1018.5 |
| 20260507182549 | 18 | 139 | 1.6 | 4.8 | 0.00 | 0.00 | 0.00 | 74 | 1018.7 |
| 20260507182046 | 18 | 0 | 0.0 | 4.8 | 0.00 | 0.00 | 0.00 | 76 | 1018.4 |
| 20260507181549 | 17 | 0 | 0.0 | 4.8 | 0.00 | 0.00 | 0.00 | 78 | 1018.6 |
| 20260507181047 | 17 | 0 | 0.0 | 4.8 | 0.00 | 0.00 | 0.00 | 76 | 1018.4 |
| 20260507180547 | 17 | 134 | 0.0 | 4.8 | 0.00 | 0.00 | 0.00 | 76 | 1018.2 |
| 20260507180048 | 17 | 55 | 0.0 | 3.2 | 0.00 | 0.00 | 0.00 | 78 | 1018.3 |
| 20260507175547 | 17 | 0 | 0.0 | 1.6 | 0.00 | 0.00 | 0.00 | 77 | 1018.3 |
| 20260507175048 | 17 | 0 | 0.0 | 6.4 | 0.00 | 0.00 | 0.00 | 79 | 1018.2 |
| 20260507174602 | 17 | 0 | 0.0 | 6.4 | 0.00 | 0.00 | 0.00 | 78 | 1018.1 |
| 20260507174047 | 17 | 0 | 0.0 | 6.4 | 0.00 | 0.00 | 0.00 | 78 | 1018.2 |
| 20260507173546 | 16 | 0 | 0.0 | 4.8 | 0.00 | 0.00 | 0.00 | 78 | 1018.5 |
| 20260507173128 | 16 | 0 | 0.0 | 3.2 | 0.00 | 0.00 | 0.00 | 79 | 1018.5 |
| 20260507172546 | 16 | 0 | 0.0 | 4.8 | 0.00 | 0.00 | 0.00 | 79 | 1018.5 |
| 20260507172048 | 16 | 0 | 0.0 | 4.8 | 0.00 | 0.00 | 0.00 | 79 | 1018.4 |
| 20260507171559 | 16 | 0 | 0.0 | 4.8 | 0.00 | 0.00 | 0.00 | 79 | 1018.6 |
| 20260507171047 | 16 | 0 | 0.0 | 4.8 | 0.00 | 0.00 | 0.00 | 79 | 1018.4 |
| 20260507170547 | 16 | 122 | 0.0 | 4.8 | 0.00 | 0.00 | 0.00 | 79 | 1018.4 |
| 20260507170054 | 16 | 0 | 0.0 | 4.8 | 0.00 | 0.00 | 0.00 | 79 | 1018.8 |
| 20260507165547 | 16 | 0 | 0.0 | 4.8 | 0.00 | 0.00 | 0.00 | 80 | 1019.1 |
| 20260507165047 | 16 | 0 | 0.0 | 3.2 | 0.00 | 0.00 | 0.00 | 80 | 1018.9 |
| 20260507164557 | 16 | 125 | 0.0 | 3.2 | 0.00 | 0.00 | 0.00 | 81 | 1018.9 |
| 20260507164047 | 16 | 0 | 0.0 | 3.2 | 0.00 | 0.00 | 0.00 | 81 | 1018.6 |
| 20260507163546 | 16 | 0 | 0.0 | 4.8 | 0.00 | 0.00 | 0.00 | 81 | 1018.9 |
| 20260507163051 | 15 | 0 | 0.0 | 4.8 | 0.00 | 0.00 | 0.00 | 81 | 1019.0 |
| 20260507162550 | 15 | 0 | 0.0 | 3.2 | 0.00 | 0.00 | 0.00 | 81 | 1019.0 |
| 20260507162047 | 16 | 0 | 0.0 | 3.2 | 0.00 | 0.00 | 0.00 | 81 | 1019.0 |
| 20260507161602 | 16 | 0 | 0.0 | 6.4 | 0.00 | 0.00 | 0.00 | 81 | 1019.5 |
| 20260507161046 | 16 | 125 | 1.6 | 6.4 | 0.00 | 0.00 | 0.00 | 83 | 1019.8 |
| 20260507160547 | 16 | 152 | 0.0 | 3.2 | 0.00 | 0.00 | 0.00 | 83 | 1019.7 |